Weather History for K4M9 - April, 2014

Change the Weather History Date:

Sunday, April 27, 2014

  Actual Average (KARG) Record (KARG)
Temperature  
Mean Temperature 66 °F -  
Max Temperature 69 °F 71 °F 86 °F (2001)
Min Temperature 62 °F 52 °F 42 °F (2005)
Growing Degree Days 16 (Base 50)    
Moisture  
Dew Point 61 °F    
Average Humidity 85    
Maximum Humidity 100    
Minimum Humidity 59    
Precipitation  
Precipitation 3.69 in - - ()
Sea Level Pressure  
Sea Level Pressure 29.69 in    
Wind  
Wind Speed 12 mph (SE)    
Max Wind Speed 29 mph    
Max Gust Speed 43 mph    
Visibility 8 miles    
Events Rain , Thunderstorm    
Averages and records for this station are not official NWS values.
T = Trace of Precipitation, MM = Missing Value Source: NWS Daily Summary

Daily Weather History Graph

Daily Weather History Graph

Search for Another Location

Airport or City:

Trip Planner

Search our weather history database for the weather conditions in past years. The results will help you decide how hot, cold, wet, or windy it might be!

Date:

Astronomy

Apr. 27, 2014 Rise Set
Actual Time 6:13 AM CDT 7:47 PM CDT
Civil Twilight 5:46 AM CDT 8:14 PM CDT
Nautical Twilight 5:13 AM CDT 8:47 PM CDT
Astronomical Twilight 4:39 AM CDT 9:22 PM CDT
Moon 5:11 AM CDT (4/27) 6:23 PM CDT (4/27)
Length of Visible Light 14h 27m
Length of Day
13h 33m
Waning Crescent, 3% of the Moon is Illuminated
Apr 27
Waning Crescent
Apr 29
New
May 6
First Quarter
May 14
Full
May 21
Last Quarter

Hourly Weather History & Observations

Time (CDT) Temp. Dew Point Humidity Pressure Visibility Wind Dir Wind Speed Gust Speed Precip Events Conditions
12:15 AM 64.4 °F 50.0 °F 59% 29.81 in 10.0 mi SSE 9.2 mph - N/A   Clear
12:35 AM 64.4 °F 51.8 °F 64% 29.80 in 10.0 mi SSE 10.4 mph - N/A   Clear
12:55 AM 66.2 °F 51.8 °F 60% 29.79 in 10.0 mi SSE 9.2 mph - N/A   Clear
1:15 AM 66.2 °F 53.6 °F 64% 29.79 in 10.0 mi SE 9.2 mph - N/A   Partly Cloudy
1:35 AM 64.4 °F 51.8 °F 64% 29.78 in 10.0 mi SE 10.4 mph - N/A   Clear
1:55 AM 66.2 °F 51.8 °F 60% 29.78 in 10.0 mi SSE 11.5 mph - N/A   Scattered Clouds
2:15 AM 66.2 °F 53.6 °F 64% 29.77 in 10.0 mi SSE 12.7 mph - N/A   Mostly Cloudy
2:35 AM 66.2 °F 53.6 °F 64% 29.77 in 10.0 mi SE 12.7 mph - N/A   Scattered Clouds
2:55 AM 66.2 °F 53.6 °F 64% 29.76 in 10.0 mi SSE 12.7 mph - N/A   Partly Cloudy
3:15 AM 66.2 °F 53.6 °F 64% 29.76 in 10.0 mi SSE 10.4 mph - N/A   Clear
3:35 AM 66.2 °F 53.6 °F 64% 29.75 in 10.0 mi SSE 12.7 mph - N/A   Clear
3:55 AM 66.2 °F 53.6 °F 64% 29.75 in 10.0 mi SSE 11.5 mph - N/A   Clear
4:15 AM 66.2 °F 55.4 °F 68% 29.75 in 10.0 mi SSE 9.2 mph - N/A   Clear
4:35 AM 66.2 °F 55.4 °F 68% 29.75 in 10.0 mi SSE 10.4 mph - N/A   Clear
4:55 AM 68.0 °F 57.2 °F 68% 29.75 in 10.0 mi SSE 10.4 mph - N/A   Clear
5:15 AM 68.0 °F 57.2 °F 68% 29.75 in 10.0 mi SSE 9.2 mph 16.1 mph N/A   Clear
5:35 AM 66.2 °F 57.2 °F 73% 29.75 in 10.0 mi SSE 10.4 mph - N/A   Clear
5:55 AM 66.2 °F 57.2 °F 73% 29.75 in 10.0 mi SSE 8.1 mph - N/A   Clear
6:15 AM 64.4 °F 59.0 °F 83% 29.75 in 10.0 mi SE 8.1 mph - N/A   Clear
6:35 AM 64.4 °F 59.0 °F 83% 29.75 in 10.0 mi SE 9.2 mph - N/A   Clear
6:55 AM 64.4 °F 59.0 °F 83% 29.75 in 10.0 mi SE 6.9 mph - N/A   Clear
7:15 AM 66.2 °F 60.8 °F 83% 29.75 in 10.0 mi SE 6.9 mph - N/A   Clear
7:35 AM 66.2 °F 62.6 °F 88% 29.73 in 10.0 mi SE 8.1 mph - N/A   Clear
7:55 AM 68.0 °F 62.6 °F 83% 29.73 in 9.0 mi SE 12.7 mph - N/A   Clear
8:15 AM 68.0 °F 64.4 °F 88% 29.73 in 9.0 mi SSE 8.1 mph - N/A   Clear
8:35 AM 68.0 °F 64.4 °F 88% 29.73 in 10.0 mi SE 12.7 mph - N/A   Clear
8:55 AM 68.0 °F 64.4 °F 88% 29.75 in 10.0 mi SSE 11.5 mph - N/A Thunderstorm Thunderstorm
9:15 AM 68.0 °F 66.2 °F 94% 29.75 in 2.0 mi SSE 9.2 mph - 0.01 in Rain , Thunderstorm Light Thunderstorms and Rain
9:35 AM 68.0 °F 66.2 °F 94% 29.74 in 8.0 mi SSE 12.7 mph - 0.02 in Thunderstorm Scattered Clouds
9:55 AM 68.0 °F 68.0 °F 100% 29.74 in 5.0 mi South 13.8 mph 19.6 mph 0.02 in Rain , Thunderstorm Light Rain
10:15 AM 68.0 °F 68.0 °F 100% 29.75 in 6.0 mi South 13.8 mph 19.6 mph N/A Rain , Thunderstorm Light Rain
10:35 AM 68.0 °F 68.0 °F 100% 29.74 in 4.0 mi South 28.8 mph 38.0 mph 0.02 in Rain , Thunderstorm Light Rain
10:55 AM 68.0 °F 66.2 °F 94% 29.73 in 3.0 mi South 28.8 mph 42.6 mph 0.02 in Rain , Thunderstorm Light Thunderstorms and Rain
11:15 AM 68.0 °F 66.2 °F 94% 29.71 in 4.0 mi South 23.0 mph 33.4 mph N/A Rain , Thunderstorm Light Rain
11:35 AM 68.0 °F 66.2 °F 94% 29.71 in 10.0 mi South 12.7 mph - N/A Thunderstorm Clear
11:55 AM 66.2 °F 66.2 °F 100% 29.75 in 9.0 mi SSW 13.8 mph - N/A   Clear
12:15 PM 66.2 °F 66.2 °F 100% 29.74 in 10.0 mi SSW 10.4 mph 21.9 mph N/A Thunderstorm Clear
12:35 PM 66.2 °F 64.4 °F 94% 29.73 in 10.0 mi South 9.2 mph 16.1 mph N/A   Clear
12:55 PM 68.0 °F 64.4 °F 88% 29.71 in 10.0 mi SE 5.8 mph - N/A Thunderstorm Clear
1:15 PM 68.0 °F 64.4 °F 88% 29.69 in 10.0 mi SE 9.2 mph - N/A   Unknown
1:35 PM 68.0 °F 64.4 °F 88% 29.71 in 10.0 mi South 6.9 mph - N/A   Unknown
1:55 PM 69.8 °F 64.4 °F 83% 29.68 in 10.0 mi SSE 16.1 mph - N/A   Unknown
2:15 PM 69.8 °F 64.4 °F 83% 29.68 in 10.0 mi SE 15.0 mph 26.5 mph N/A Thunderstorm Unknown
2:35 PM 69.8 °F 64.4 °F 83% 29.68 in 10.0 mi SSE 15.0 mph 23.0 mph N/A Thunderstorm Unknown
3:15 PM 68.0 °F 64.4 °F 88% 29.69 in 4.0 mi South 10.4 mph - N/A Rain , Thunderstorm Light Thunderstorms and Rain
3:35 PM 68.0 °F 64.4 °F 88% 29.66 in 9.0 mi SSE 12.7 mph 18.4 mph N/A Thunderstorm Clear
3:55 PM 68.0 °F 64.4 °F 88% 29.64 in 10.0 mi South 11.5 mph 16.1 mph N/A Thunderstorm Unknown
4:15 PM 68.0 °F 62.6 °F 83% 29.70 in 7.0 mi SSW 18.4 mph 21.9 mph N/A Thunderstorm Thunderstorm
4:35 PM 66.2 °F 64.4 °F 94% 29.60 in 4.0 mi ESE 21.9 mph 31.1 mph 0.04 in Rain , Thunderstorm Light Thunderstorms and Rain
4:55 PM 66.2 °F 64.4 °F 94% 29.65 in 10.0 mi SSE 8.1 mph 19.6 mph 0.05 in Thunderstorm Scattered Clouds
5:15 PM 66.2 °F 62.6 °F 88% 29.66 in 10.0 mi SE 8.1 mph - N/A   Scattered Clouds
5:35 PM 66.2 °F 64.4 °F 94% 29.66 in 10.0 mi ESE 10.4 mph - N/A   Scattered Clouds
5:55 PM 66.2 °F 64.4 °F 94% 29.64 in 10.0 mi ESE 18.4 mph 23.0 mph N/A Thunderstorm Mostly Cloudy
6:15 PM 66.2 °F 62.6 °F 88% 29.62 in 10.0 mi ESE 18.4 mph 24.2 mph N/A Thunderstorm Mostly Cloudy
6:35 PM 66.2 °F 64.4 °F 94% 29.60 in 10.0 mi ESE 18.4 mph - N/A Thunderstorm Overcast
6:55 PM 66.2 °F 62.6 °F 88% 29.58 in 10.0 mi ESE 23.0 mph 27.6 mph N/A Rain , Thunderstorm Light Rain
7:15 PM 66.2 °F 62.6 °F 88% 29.56 in 10.0 mi ESE 24.2 mph 33.4 mph N/A Thunderstorm Overcast
7:35 PM 66.2 °F 62.6 °F 88% 29.54 in 10.0 mi ESE 27.6 mph 35.7 mph N/A Thunderstorm Mostly Cloudy
7:55 PM 64.4 °F 64.4 °F 100% 29.53 in 7.0 mi ESE 28.8 mph 35.7 mph 0.01 in Thunderstorm Thunderstorm
8:15 PM 64.4 °F 64.4 °F 100% 29.54 in 10.0 mi ESE 27.6 mph 36.8 mph N/A Thunderstorm Thunderstorm
8:35 PM 64.4 °F 64.4 °F 100% 29.56 in 10.0 mi ESE 24.2 mph 39.1 mph N/A Rain , Thunderstorm Light Rain
8:55 PM 64.4 °F 64.4 °F 100% 29.58 in 10.0 mi ESE 18.4 mph 29.9 mph N/A Rain , Thunderstorm Light Rain
9:15 PM 64.4 °F 62.6 °F 94% 29.67 in 1.5 mi NW 17.3 mph 25.3 mph 0.08 in Rain , Thunderstorm Heavy Thunderstorms and Rain
9:35 PM 62.6 °F 62.6 °F 100% 29.65 in 0.8 mi NNW 12.7 mph 18.4 mph 0.25 in Rain , Thunderstorm Heavy Thunderstorms and Rain
9:55 PM 62.6 °F 62.6 °F 100% 29.62 in 0.5 mi North 9.2 mph - 0.81 in Rain , Thunderstorm Heavy Thunderstorms and Rain
10:15 PM 62.6 °F 62.6 °F 100% 29.62 in 1.0 mi NE 9.2 mph 18.4 mph 0.40 in Rain , Thunderstorm Heavy Rain
10:35 PM 62.6 °F 62.6 °F 100% 29.63 in 1.5 mi North 10.4 mph - 0.71 in Rain , Thunderstorm Heavy Rain
10:55 PM 62.6 °F 62.6 °F 100% 29.62 in 0.5 mi North 12.7 mph - 1.58 in Rain , Thunderstorm Heavy Thunderstorms and Rain
11:15 PM 62.6 °F 62.6 °F 100% 29.57 in 1.2 mi NNE 11.5 mph 20.7 mph 0.41 in Rain , Thunderstorm Heavy Thunderstorms and Rain
11:35 PM 62.6 °F 62.6 °F 100% 29.63 in 1.2 mi NE 6.9 mph 17.3 mph 0.69 in Rain , Thunderstorm Heavy Thunderstorms and Rain
11:55 PM 62.6 °F 62.6 °F 100% 29.58 in 1.2 mi East 11.5 mph - 1.20 in Rain , Thunderstorm Thunderstorms and Rain